Overview Statistics Trail Chart Weather Telemetry Raw packets
 

This is the latest recevied weather packets stored in our database for station/object KD2FKI. If no packets are shown the sender has not sent any weather packets the latest 10 day(s).

<< 24 25 26 27 28 29 30 >>
Time Temp. Humidity Pressure Rain* Wind** Luminosity Snow
1788036326 30.56° C 45% - 0 mm - - -
1788035724 30.56° C 44% - 0 mm - - -
1788035123 31.11° C 43% - 0 mm - - -
1788034520 31.11° C 43% - 0 mm - - -
1788033936 31.11° C 41% - 0 mm - - -
1788033333 31.11° C 42% - 0 mm - - -
1788032731 32.22° C 40% - 0 mm - - -
1788032130 32.22° C 39% - 0 mm - - -
1788031528 33.33° C 39% - 0 mm - - -
1788030927 33.89° C 37% - 0 mm - - -
1788030325 34.44° C 37% - 0 mm - - -
1788029724 34.44° C 37% - 0 mm - - -
1788029139 33.89° C 37% - 0 mm - - -
1788028539 33.89° C 37% - 0 mm - - -
1788027931 35° C 35% - 0 mm - - -
1788027329 35.56° C 33% - 0 mm - - -
1788026728 33.33° C 38% - 0 mm - - -
1788026125 34.44° C 36% - 0 mm - - -
1788025522 34.44° C 34% - 0 mm - - -
1788024920 33.89° C 36% - 0 mm - - -
1788024336 32.78° C 37% - 0 mm - - -
1788023734 32.78° C 37% - 0 mm - - -
1788023131 32.22° C 37% - 0 mm - - -
1788022529 32.22° C 38% - 0 mm - - -
1788021927 33.33° C 35% - 0 mm - - -

* Rain latest hour (hover to see other rain measurements)
** Current wind speed in m/s (hover to see current wind gust speed)